Regional Weather Roundup
Issued by NWS

Home | Current Version | Previous Version | Text Only | Print | Product List | Glossary On
Versions: 1 2 3 4 5 6 7 8 9 10 11 12 13 14 15 16 17 18 19 20 21 22 23 24 25 26 27 28 29 30 31 32 33 34 35 36 37 38 39 40 41 42 43 44 45 46 47 48 49 50
000
ASUS44 KFWD 201803
RWRTX
NORTH TEXAS HOURLY WEATHER ROUNDUP
NATIONAL WEATHER SERVICE FORT WORTH TX
100 PM CDT SUN MAY 20 2018

NOTE: "FAIR" INDICATES FEW OR NO CLOUDS BELOW 12,000 FEET WITH NO
SIGNIFICANT WEATHER AND/OR OBSTRUCTIONS TO VISIBILITY.

TXZ118-119-201900-
DALLAS/FORT WORTH METROPLEX

CITY           SKY/WX    TMP DP  RH WIND       PRES   REMARKS
DFW AIRPORT    PTSUNNY   72  68  87 SE13      30.00F
6HR MIN TEMP:  66; 6HR MAX TEMP:  72; 6HR PCP:  0.48;

DALLAS LOVE    PTSUNNY   72  68  87 SE17      30.01F
6HR MIN TEMP:  67; 6HR MAX TEMP:  77; 6HR PCP:  0.48;

FTW MEACHAM    PTSUNNY   75  68  78 SE12      30.02R
6HR MIN TEMP:  66; 6HR MAX TEMP:  75; 6HR PCP:  0.57;

DAL-EXECUTIVE  LGT RAIN  71  67  87 SE14      30.03F
6HR MIN TEMP:  67; 6HR MAX TEMP:  76; 6HR PCP:  0.62;

FTW-ALLIANCE   PTSUNNY   76  67  73 S8        30.03R
6HR MIN TEMP:  65; 6HR MAX TEMP:  76; 6HR PCP:  0.34;

FTW-NAS-JRB    PTSUNNY   73  65  75 S6        30.04R
6HR MIN TEMP:  66; 6HR MAX TEMP:  73; 6HR PCP:  0.52;

FTW-SPINKS     PTSUNNY   70  66  88 SE15G22   30.04F
ARLINGTON      CLOUDY    70  69  97 SE8       30.03F
6HR MIN TEMP:  65; 6HR MAX TEMP:  75; 6HR PCP:  0.57;

GRAND PRAIRIE  SUNNY     70  70 100 E5        30.03F
ADDISON        PTSUNNY   72  68  88 SE13G21   30.02F
MESQUITE       PTSUNNY   68  66  94 CALM      30.05F
LANCASTER      RAIN      68  67  96 SE12      30.06S
6HR MIN TEMP:  66; 6HR MAX TEMP:  75; 6HR PCP:  0.64;

$$

TXZ091>094-102>105-117-120-121-131>134-201900-
NORTH CENTRAL TEXAS

CITY           SKY/WX    TMP DP  RH WIND       PRES   REMARKS
SHRMAN/DENISON FAIR      76  65  70 SW8       30.03S
6HR MIN TEMP:  66; 6HR MAX TEMP:  76; 6HR PCP:  0.14;

GAINESVILLE    CLOUDY    77  66  69 CALM      30.06S
6HR MIN TEMP:  64; 6HR MAX TEMP:  77; 6HR PCP:  0.55;

BOWIE          PTSUNNY   74  65  74 N12       30.06S
6HR MIN TEMP:  63; 6HR MAX TEMP:  74; 6HR PCP:  0.16;

BRIDGEPORT     FAIR      76  64  66 N8        30.06R
6HR MIN TEMP:  63; 6HR MAX TEMP:  77; 6HR PCP:  0.29;

DECATUR        FAIR      76  66  70 CALM      30.03F
6HR MIN TEMP:  64; 6HR MAX TEMP:  76; 6HR PCP:  1.14;

DENTON         FAIR      74  66  76 CALM      30.03R
6HR MIN TEMP:  64; 6HR MAX TEMP:  74; 6HR PCP:  0.45;

MCKINNEY       FAIR      71  69  93 S12       30.02F
6HR MIN TEMP:  68; 6HR MAX TEMP:  77; 6HR PCP:  0.29;

BONHAM         PTSUNNY   72  65  78 S9        30.02F
6HR MIN TEMP:  70; 6HR MAX TEMP:  77;

ROCKWALL       CLOUDY    69  69 100 S5        30.05F
6HR MIN TEMP:  68; 6HR MAX TEMP:  76; 6HR PCP:  0.17;

TERRELL        LGT RAIN  70  66  87 CALM      30.06F
6HR MIN TEMP:  70; 6HR MAX TEMP:  80; 6HR PCP:  0.03;

WAXAHACHIE     RAIN      67  67 100 CALM      30.06F
6HR MIN TEMP:  65; 6HR MAX TEMP:  73; 6HR PCP:  0.85;

CLEBURNE       PTSUNNY   66  66 100 SE10      30.06S
GRANBURY       PTSUNNY   76  65  70 SE9       30.05R
6HR MIN TEMP:  65; 6HR MAX TEMP:  76; 6HR PCP:  0.07;

$$

TXZ083>090-098>101-113>116-127>130-139>142-154-155-201900-
WESTERN NORTH TEXAS

CITY           SKY/WX    TMP DP  RH WIND       PRES   REMARKS
WICHITA FALLS  CLOUDY    72  62  71 N14       30.07S
6HR MIN TEMP:  63; 6HR MAX TEMP:  72; 6HR PCP: TRACE;

WF-KICKAPOO    PTSUNNY   72  62  71 N13       30.10R
6HR MIN TEMP:  64; 6HR MAX TEMP:  72;

VERNON         FAIR      69  60  72 N10       30.11F
6HR MIN TEMP:  62; 6HR MAX TEMP:  69; 6HR PCP:  0.02;

ABILENE        FAIR      71  62  73 N14       30.07R
6HR MIN TEMP:  61; 6HR MAX TEMP:  72; 6HR PCP:  0.36;

ABILENE-DYESS  PTSUNNY   72  59  63 N13       30.07R
6HR MIN TEMP:  62; 6HR MAX TEMP:  72; 6HR PCP:  0.37;

BRECKENRIDGE   FAIR      78  60  54 NE10G17   30.05R
6HR MIN TEMP:  65; 6HR MAX TEMP:  78;

CISCO          FAIR      77  59  53 N14G22    30.05R
EASTLAND       FAIR      82  58  43 CALM      30.04R
6HR MIN TEMP:  62; 6HR MAX TEMP:  83;

RANGER         FAIR      80  58  48 SE5       30.03R
6HR MIN TEMP:  62; 6HR MAX TEMP:  80;

MINERAL WELLS  FAIR      79  64  60 SE7       30.01F
6HR MIN TEMP:  63; 6HR MAX TEMP:  79; 6HR PCP:  0.06;

STEPHENVILLE   PTSUNNY   77  63  63 SE10      30.06F
6HR MIN TEMP:  63; 6HR MAX TEMP:  77; 6HR PCP:  0.02;

COMANCHE       FAIR      80  62  53 SE9       30.05F
6HR MIN TEMP:  65; 6HR MAX TEMP:  80;

COLEMAN        FAIR      81  52  36 S12       30.02F
6HR MIN TEMP:  65; 6HR MAX TEMP:  81;

BRADY          PTSUNNY   73  57  56 SE10      30.07F
$$

TXZ143>147-156>162-174-175-201900-
CENTRAL TEXAS

CITY           SKY/WX    TMP DP  RH WIND       PRES   REMARKS
WACO           HVY RAIN  67  65  93 N8        30.07S FOG
6HR MIN TEMP:  66; 6HR MAX TEMP:  82; 6HR PCP:  0.80;

WACO-TSTC      RAIN      68  68 100 N6        30.07S
WACO-MCGREGOR  CLOUDY    66  65  96 CALM      30.08S FOG
6HR MIN TEMP:  66; 6HR MAX TEMP:  81; 6HR PCP:  0.59;

HILLSBORO      TSTM      67  67 100 E8        30.07F
6HR MIN TEMP:  66; 6HR MAX TEMP:  75; 6HR PCP:  0.77;

CORSICANA      TSTM      69  67  93 NW12      30.07S
6HR MIN TEMP:  69; 6HR MAX TEMP:  81; 6HR PCP: TRACE;

MEXIA          TSTM      67  66  96 NW10G20   30.08R
6HR MIN TEMP:  67; 6HR MAX TEMP:  86; 6HR PCP:  0.20;

HEARNE         FAIR      76  74  93 E3        30.03F
6HR MIN TEMP:  72; 6HR MAX TEMP:  84; 6HR PCP:  0.13;

CAMERON        CLOUDY    71  67  89 N16G28    30.04R
6HR MIN TEMP:  71; 6HR MAX TEMP:  84; 6HR PCP:  0.29;

TEMPLE         CLOUDY    66  66 100 N10       30.08S FOG
6HR MIN TEMP:  66; 6HR MAX TEMP:  81; 6HR PCP:  2.39;

KILLEEN        NOT AVBL
KILLEEN-SKYLRK TSTM      65  65 100 N9        30.07F
6HR MIN TEMP:  65; 6HR MAX TEMP:  75; 6HR PCP:  1.48;

FORT HOOD      RAIN      65  64  95 N14       30.04F VSB 7/8
6HR MIN TEMP:  65; 6HR MAX TEMP:  76; 6HR PCP:  1.62;

GATESVILLE     RAIN      66  64  94 SE3       30.10S
HAMILTON       CLOUDY    70  64  80 SE8       30.08F
6HR MIN TEMP:  64; 6HR MAX TEMP:  72; 6HR PCP:  0.40;

LAMPASAS       RAIN      64  62  94 E5        30.07F
6HR MIN TEMP:  63; 6HR MAX TEMP:  73; 6HR PCP:  0.52;

$$

TXZ095>097-106>112-122>126-135>138-148>153-164>167-201900-
EAST TEXAS

CITY           SKY/WX    TMP DP  RH WIND       PRES   REMARKS
PARIS          FAIR      80  71  74 S10       30.03F
6HR MIN TEMP:  71; 6HR MAX TEMP:  82;

SULPHUR SPRNGS FAIR      82  67  61 W7        30.06F
6HR MIN TEMP:  74; 6HR MAX TEMP:  83;

MOUNT PLEASANT FAIR      86  68  53 W3        30.04F
6HR MIN TEMP:  70; 6HR MAX TEMP:  87;

GILMER         PTSUNNY   85  67  54 S6        30.04S
MINEOLA        FAIR      86  66  51 SW6       30.04S
TYLER          FAIR      88  64  44 S9        30.03F
6HR MIN TEMP:  74; 6HR MAX TEMP:  88;

LONGVIEW       PTSUNNY   90  68  48 S8        30.02F HX  94
6HR MIN TEMP:  71; 6HR MAX TEMP:  90;

MARSHALL       FAIR      87  66  48 SE5       30.05F
6HR MIN TEMP:  66; 6HR MAX TEMP:  87;

ATHENS         PTSUNNY   86  68  54 N7        30.02S
PALESTINE      FAIR      87  67  51 E5        30.03F HX  90
JACKSONVILLE   FAIR      86  69  56 S5        30.06S HX  90
HENDERSON      FAIR      87  67  51 W6        30.04F HX  90
6HR MIN TEMP:  70; 6HR MAX TEMP:  88;

CENTER         MOCLDY    85  65  51 SE6       30.04F
6HR MIN TEMP:  67; 6HR MAX TEMP:  86;

NACOGDOCHES      N/A     87  68  52 SE10      30.02F HX  90
6HR MIN TEMP:  71; 6HR MAX TEMP:  89;

LUFKIN         FAIR      89  68  49 VRB7G17   30.02F HX  93
6HR MIN TEMP:  71; 6HR MAX TEMP:  89;

$$

SUPPLEMENTAL OBSERVATIONS (NWS FORT WORTH AREA)

CITY           SKY/WX    TMP DP  RH WIND       PRES   REMARKS
$$

SUPPLEMENTAL OBSERVATIONS (NWS NORMAN AREA)

CITY           SKY/WX    TMP DP  RH WIND       PRES   REMARKS
GOODLETT         N/A     67  55  64 N13G21    30.13F
ODELL            N/A     69  59  70 N10       30.13F
CROWELL          N



USA.gov is the U.S. government's official web portal to all federal, state and local government web resources and services.